CST,Max TemperatureF,Mean TemperatureF,Min TemperatureF,Max Dew PointF,MeanDew PointF,Min DewpointF,Max Humidity, Mean Humidity, Min Humidity, Max Sea Level PressureIn, Mean Sea Level PressureIn, Min Sea Level PressureIn, Max VisibilityMiles, Mean VisibilityMiles, Min VisibilityMiles, Max Wind SpeedMPH, Mean Wind SpeedMPH, Max Gust SpeedMPH,PrecipitationIn, CloudCover, Events, WindDirDegrees
2013-1-1,14,7,0,10,1,-6,86,73,53,30.11,30.03,29.95,10,9,4,10,4,,0.00,4,Snow,264
2013-1-2,23,18,14,14,13,10,93,80,68,29.96,29.93,29.89,10,8,2,13,5,17,0.00,8,Snow,204
2013-1-3,23,18,14,19,13,9,93,80,68,30.03,29.97,29.87,10,8,4,15,6,21,0.00,5,Snow,271
2013-1-4,33,22,12,21,15,9,93,74,56,30.06,29.94,29.86,10,10,10,14,8,21,0.00,0,,272
2013-1-5,30,18,5,19,13,1,93,79,60,30.08,29.90,29.78,10,10,5,13,2,16,0.00,1,,166
2013-1-6,28,20,12,25,19,9,93,83,69,30.11,30.00,29.80,10,9,2,10,6,17,0.00,6,Snow,324
2013-1-7,35,24,14,27,18,5,93,72,58,30.05,29.86,29.77,10,10,10,20,10,29,0.00,0,,216
2013-1-8,39,26,12,30,21,9,93,81,52,30.00,29.88,29.71,10,8,0,16,4,26,0.00,2,Fog,178
2013-1-9,35,27,19,30,23,14,93,72,60,30.33,30.01,29.72,10,10,10,24,12,33,0.00,4,,267
2013-1-10,39,28,17,32,18,10,93,61,31,30.36,30.18,29.80,10,10,4,17,6,22,0.12,1,Rain-Snow,162
2013-1-11,41,37,33,39,35,32,100,95,93,29.78,29.58,29.41,10,2,0,16,8,22,0.00,8,Fog-Rain,172
2013-1-12,42,28,14,41,23,9,100,80,68,29.91,29.64,29.36,10,8,1,23,14,33,0.03,8,Rain-Snow,241
2013-1-13,14,10,6,9,6,1,79,75,67,30.05,29.93,29.86,10,8,2,10,6,16,0.00,8,Snow,305
2013-1-14,12,6,0,5,2,-6,85,77,73,30.26,30.20,30.06,10,10,5,13,6,18,0.00,4,Snow,249
2013-1-15,28,14,1,14,8,-4,86,68,43,30.24,30.06,29.79,10,10,10,14,6,23,0.00,3,Snow,213
2013-1-16,30,22,14,25,15,3,86,72,54,30.03,29.71,29.52,10,8,2,18,12,25,0.00,6,Snow,280
2013-1-17,12,4,-4,5,-2,-8,85,70,52,30.25,30.18,30.04,10,9,3,12,7,18,0.00,3,Snow,303
2013-1-18,24,10,-4,21,11,-8,93,83,78,30.23,29.88,29.68,10,8,1,9,3,16,0.02,6,Snow,170
2013-1-19,35,20,5,32,19,-4,93,83,66,29.84,29.63,29.47,10,5,0,25,7,36,0.00,7,Snow,280
2013-1-20,5,0,-4,-2,-7,-9,85,71,56,30.14,30.06,29.86,10,9,4,16,10,23,0.00,2,,294
2013-1-21,-4,-9,-14,-8,-19,-24,85,65,49,30.07,30.03,29.99,10,9,3,14,7,22,0.00,2,,290
2013-1-22,1,-8,-16,-13,-18,-24,76,63,51,30.19,30.13,30.07,10,10,10,10,6,,0.00,0,,270
2013-1-23,10,-4,-18,3,-10,-26,85,73,61,30.37,30.10,29.95,10,7,1,17,3,26,0.00,4,Snow,305
2013-1-24,8,-5,-18,3,-10,-26,85,68,48,30.53,30.41,30.18,10,9,1,12,2,,0.00,2,Snow,170
2013-1-25,17,14,10,10,8,3,86,79,68,30.16,29.95,29.81,10,5,1,13,8,17,0.01,7,Snow,251
2013-1-26,23,16,8,12,8,3,79,72,63,30.27,30.20,30.10,10,9,3,10,4,17,0.00,5,Snow,198
2013-1-27,32,26,19,28,19,9,93,73,55,30.17,30.02,29.81,10,7,1,12,8,16,0.12,7,Snow,161
2013-1-28,35,32,28,30,29,27,93,90,80,29.86,29.81,29.71,10,8,1,9,2,,0.05,5,Snow,155
2013-1-29,35,32,30,34,31,28,100,93,87,29.69,29.54,29.45,10,6,0,15,8,23,0.29,8,Fog-Snow,339
2013-1-30,30,21,12,28,17,7,93,83,74,29.58,29.45,29.38,10,5,0,22,14,29,0.00,7,Snow,354
2013-1-31,12,8,3,9,1,-4,85,73,62,29.95,29.70,29.47,10,8,1,18,10,24,0.00,5,Snow,307